CAPE
23 33 42 59 59 151 115 81 100 100 94 60 46 46 18 3 nan nan nan nan nan nan nan nan nan nan nan nan nan nan nan nan nan nan nan nan nan nan nan nan nan nan nan nan nan nan nan nan nan nan nan nan nan nan nan 1 1 30 116 242 242 313 464 607 607 765 818 672 527 527 437 353 253 253 170 81 39 39 12 6 6 3 5 1 1 1
3 9 15 29 29 55 50 42 126 126 135 91 70 70 55 53 21 21 2 nan nan nan nan nan nan nan nan nan nan nan nan nan nan nan nan nan nan nan nan nan nan nan nan nan nan nan nan nan nan nan nan nan nan nan nan nan nan 1 35 102 102 207 343 502 502 626 673 519 387 387 314 285 148 148 86 32 9 9 2 3 3 4 5 nan nan 1
2 4 5 10 10 20 29 23 39 39 70 98 77 77 57 64 71 71 39 6 6 nan nan nan nan nan nan nan nan nan nan nan nan nan nan nan nan nan nan nan nan nan nan nan nan nan nan nan nan nan nan nan nan nan nan nan nan nan 2 27 27 99 193 328 328 417 372 261 213 213 183 153 77 77 17 4 4 4 4 1 1 3 5 0 0 1
8 9 8 11 11 18 29 24 20 20 33 51 49 49 60 101 96 96 56 35 35 7 0 nan nan nan nan nan nan nan nan nan nan nan nan nan nan nan nan nan nan nan nan nan nan nan nan nan nan nan nan nan nan nan nan nan nan nan nan 8 8 28 73 114 114 147 126 97 89 89 83 46 6 6 1 2 5 5 6 6 6 4 5 nan nan 1
12 11 11 17 17 26 26 28 34 34 36 43 64 64 103 122 118 118 77 46 46 21 4 1 1 nan nan nan nan nan nan nan nan nan nan nan nan nan nan nan nan nan nan nan nan nan nan nan nan nan nan nan nan nan nan nan nan nan nan 1 1 13 25 36 36 24 15 16 8 8 2 nan nan nan nan 1 6 6 10 9 9 7 2 1 1 3
13 11 15 24 24 29 26 30 42 42 58 53 50 50 73 126 135 135 120 70 70 27 19 11 11 nan nan nan nan nan nan nan nan nan nan nan nan nan nan nan nan nan nan nan nan nan nan nan nan nan nan nan nan nan nan nan nan nan nan 0 0 5 9 6 6 2 nan 1 nan nan nan nan nan nan nan 2 8 8 14 12 12 9 2 1 1 3
18 15 17 24 24 30 26 23 23 23 38 55 80 80 105 102 97 97 83 42 42 25 18 10 10 nan nan nan nan nan nan nan nan nan nan nan nan nan nan nan nan nan nan nan nan nan nan nan nan nan nan nan nan nan nan nan nan nan nan nan nan nan 0 0 0 nan nan nan nan nan nan nan nan nan nan 3 11 11 16 15 15 8 2 1 1 3
83 62 45 43 43 36 29 21 22 22 35 58 73 73 90 93 59 59 34 19 19 19 18 8 8 0 nan nan nan nan nan nan nan nan nan nan nan nan nan nan nan nan nan nan nan nan nan nan nan nan nan nan nan nan nan nan nan nan nan nan nan nan nan nan nan nan nan nan nan nan nan nan nan nan nan 3 8 8 11 11 11 7 2 3 3 5
89 88 83 68 68 59 54 41 29 29 44 55 67 67 84 80 71 71 49 42 42 32 16 11 11 nan nan nan nan nan nan nan nan nan nan nan nan nan nan nan nan nan nan nan nan nan nan nan nan nan nan nan nan nan nan nan nan nan nan nan nan nan nan nan nan nan nan nan nan nan nan nan nan nan 0 2 6 6 5 5 5 9 6 7 7 12
56 65 76 75 75 90 97 94 80 80 78 85 111 111 90 94 75 75 62 105 105 70 22 5 5 5 nan nan nan nan nan nan nan nan nan nan nan nan nan nan nan nan nan nan nan nan nan nan nan nan nan 0 nan nan nan nan nan nan nan nan nan nan nan nan nan nan nan nan nan nan nan nan nan nan 0 1 2 2 4 6 6 11 11 14 14 19
37 46 55 69 69 104 108 121 118 118 95 131 151 151 187 204 54 54 34 49 49 46 47 33 33 3 0 nan nan nan nan nan nan nan nan nan nan nan nan nan nan nan nan nan nan nan 0 nan nan nan nan nan nan nan nan nan nan nan nan nan nan nan nan nan nan nan nan nan nan nan 0 0 1 1 1 1 2 2 4 8 8 13 16 20 20 21
33 41 46 44 44 49 56 58 58 58 86 117 121 121 118 162 50 50 26 41 41 50 36 23 23 14 0 nan nan nan nan nan nan nan nan nan nan nan nan nan nan nan nan nan nan nan 0 0 0 nan nan nan nan nan nan nan nan nan nan nan nan nan nan nan nan nan nan nan 0 0 0 1 1 1 2 2 3 3 5 9 9 14 20 22 22 22
35 34 34 40 40 40 37 42 45 45 66 94 86 86 97 84 55 55 55 78 78 49 30 20 20 8 0 nan nan nan nan nan nan nan nan nan nan nan nan nan nan nan nan nan nan nan nan 0 0 0 nan nan nan nan nan nan nan nan nan nan nan nan nan nan nan nan nan nan 0 0 1 1 2 2 3 4 5 5 6 10 10 17 23 24 24 26
48 45 49 50 50 44 44 65 83 83 93 88 92 92 114 111 96 96 104 86 86 42 23 29 29 17 0 nan nan nan nan nan nan nan nan nan nan nan nan nan nan nan nan nan nan nan nan nan nan nan nan nan nan nan nan nan nan nan nan nan nan nan nan nan nan nan nan nan 0 0 1 2 4 4 5 6 7 7 9 12 12 16 20 23 23 26
48 49 55 53 53 52 54 76 92 92 80 67 83 83 99 106 103 103 93 87 87 51 34 33 33 20 5 nan nan nan nan nan nan nan nan nan nan nan nan nan nan nan nan nan nan nan nan nan nan nan nan nan nan nan nan nan nan nan nan nan nan nan nan nan nan nan nan nan 0 0 1 2 4 4 5 6 8 8 9 12 12 16 21 25 25 28
41 39 41 35 35 34 28 35 41 41 42 42 62 62 97 104 97 97 78 84 84 72 52 39 39 25 17 nan nan nan nan nan nan nan nan nan nan nan nan nan nan nan nan nan nan nan nan nan nan nan nan nan nan nan nan nan nan nan nan nan nan nan nan nan nan nan nan nan 0 0 1 3 3 3 5 8 9 9 10 13 13 19 22 25 25 30
27 28 29 24 24 18 13 15 18 18 23 39 61 61 88 93 90 90 88 95 95 74 40 29 29 37 27 nan nan nan nan nan nan nan nan nan nan nan nan nan nan nan nan nan nan nan nan nan nan nan nan nan nan nan nan nan nan nan nan nan nan nan nan nan nan nan nan nan 0 0 1 4 5 5 6 9 12 12 14 17 17 20 24 29 29 31
25 22 25 24 24 16 14 15 21 21 31 58 88 88 102 90 100 100 94 76 76 70 85 89 89 51 33 22 nan nan nan nan nan nan nan nan nan nan nan nan nan nan nan nan nan nan nan nan nan nan nan nan nan nan nan nan nan nan nan nan nan nan nan nan nan nan nan nan 1 1 2 6 7 7 8 12 16 16 18 20 20 24 30 35 35 37
27 20 22 22 22 18 17 19 26 26 46 67 77 77 69 67 62 62 66 74 74 87 85 67 67 50 35 53 nan nan nan nan nan nan nan nan nan nan nan nan nan nan nan nan nan nan nan nan nan nan nan nan nan nan nan nan nan nan nan nan nan nan nan nan nan nan nan 0 2 2 7 8 11 11 14 16 20 20 22 27 27 30 34 38 38 40
28 21 20 16 16 17 15 19 22 22 40 56 63 63 52 41 43 43 56 63 63 71 68 45 45 46 38 55 nan nan nan nan nan nan nan nan nan nan nan nan nan nan nan nan nan nan nan nan nan nan nan nan nan nan nan nan nan nan nan nan nan nan nan nan nan nan 0 2 6 6 9 12 16 16 19 21 23 23 27 30 30 35 37 40 40 41
22 17 9 8 8 15 14 15 16 16 26 35 34 34 34 46 62 62 82 84 84 83 75 56 56 52 44 44 8 8 nan nan nan nan nan nan nan nan nan nan nan nan nan nan nan nan nan nan nan nan nan nan nan nan nan 1 1 2 nan nan nan nan nan nan nan nan 2 5 9 9 12 17 19 19 22 22 25 25 30 34 34 36 39 41 41 42
16 15 5 3 3 7 15 11 17 17 25 33 40 40 41 50 57 57 63 70 70 71 70 69 69 59 54 62 23 23 nan nan nan nan nan nan nan nan nan nan nan nan nan nan nan nan nan nan nan nan nan nan nan nan 4 5 5 2 nan nan nan nan nan nan nan 1 4 10 13 13 16 21 23 23 23 25 26 26 30 35 35 38 39 42 42 45
11 9 5 4 4 7 15 13 17 17 28 33 50 50 46 39 41 41 34 40 40 40 35 33 33 30 33 41 nan nan nan nan nan nan nan nan nan nan nan nan nan nan nan nan nan nan nan nan nan nan nan 2 3 3 9 5 5 nan nan nan nan nan 0 1 1 4 8 12 15 15 21 22 23 23 21 24 29 29 32 35 35 38 40 45 45 47
7 7 6 7 7 9 14 16 20 20 21 26 29 29 36 33 38 38 36 32 32 31 26 21 21 19 15 8 nan nan nan nan nan nan nan nan nan nan nan nan nan nan nan nan nan nan nan nan nan nan nan 4 8 8 9 0 0 nan nan nan nan 1 3 5 5 9 13 14 19 19 23 22 24 24 24 27 27 27 30 34 34 36 39 44 44 44
4 6 8 10 10 15 20 24 31 31 29 30 31 31 33 34 36 36 32 37 37 33 34 27 27 21 8 4 nan nan nan nan nan nan nan nan nan nan nan nan nan nan nan nan nan nan nan nan nan nan nan nan 9 9 4 nan nan nan 0 2 2 5 8 10 10 13 17 18 23 23 23 23 25 25 26 26 27 27 29 33 33 34 37 41 41 39
17 21 21 40 40 62 78 82 73 73 63 47 31 31 25 31 30 30 30 29 29 26 28 24 24 14 4 2 0 0 nan nan nan nan nan nan nan nan nan nan nan nan nan nan nan nan nan nan nan nan nan nan 13 13 nan 0 0 1 3 7 7 9 12 14 14 16 19 22 22 22 24 24 26 26 26 28 27 27 30 31 31 34 37 35 35 32
104 118 122 97 97 79 74 70 70 70 69 63 53 53 35 25 23 23 24 20 20 21 17 19 19 10 2 3 1 1 nan nan nan nan nan nan nan nan nan nan nan nan nan nan nan nan nan nan nan nan nan nan 0 0 2 2 2 5 7 12 12 14 16 17 17 21 20 22 24 24 25 29 29 29 27 28 30 30 32 35 35 35 34 30 30 30
100 73 55 41 41 28 19 19 25 25 30 39 44 44 39 20 21 21 17 14 14 12 14 14 14 10 6 7 2 2 nan nan nan nan nan nan nan nan nan nan nan nan nan nan nan nan 0 nan nan nan nan nan nan nan 2 5 5 8 11 13 13 17 18 18 18 22 21 23 23 23 27 27 29 29 29 29 32 32 36 38 38 36 29 17 17 3
39 24 15 13 13 13 15 21 23 23 28 34 44 44 45 40 50 50 45 19 19 8 11 16 16 14 15 7 6 6 nan nan nan nan nan nan nan nan nan nan nan nan nan nan nan nan nan nan nan nan nan nan nan nan nan 12 12 10 13 12 12 16 18 19 19 23 22 23 25 25 28 29 30 30 31 32 36 36 39 40 40 37 24 6 6 nan
2 4 9 12 12 17 19 20 30 30 41 53 62 62 69 45 24 24 11 12 12 19 22 26 26 26 22 19 8 8 nan nan nan nan nan nan nan nan nan nan nan nan nan nan nan nan nan nan nan nan nan nan nan nan nan nan nan 0 8 17 17 14 19 20 20 22 24 22 25 25 29 32 32 32 35 36 38 38 43 44 44 30 6 nan nan nan
nan nan 0 4 4 10 14 19 40 40 63 71 81 81 61 23 16 16 20 21 21 23 24 26 26 27 26 26 13 13 nan nan nan nan nan nan nan nan nan nan nan nan nan nan nan nan nan nan nan nan nan nan nan nan nan nan nan nan nan 2 2 13 20 16 16 19 22 24 28 28 31 33 34 34 37 40 43 43 42 44 44 21 nan nan nan nan
2 4 5 7 7 8 11 20 27 27 31 28 20 20 14 4 0 0 nan 2 2 4 6 8 8 11 15 21 24 24 21 nan nan nan nan nan nan nan nan nan nan nan nan nan nan nan nan nan nan nan nan nan nan nan nan nan nan nan nan nan nan nan 11 20 20 18 20 29 33 33 33 34 38 38 41 46 46 46 43 38 38 19 nan nan nan nan
9 10 7 7 7 8 11 13 18 18 23 18 4 4 nan nan 0 0 1 nan nan 0 1 4 4 8 10 13 24 24 6 nan nan nan nan nan nan nan nan nan nan nan nan nan nan nan nan nan nan nan nan nan nan nan nan nan nan nan nan nan nan nan nan 11 11 6 17 30 28 28 48 37 42 42 43 45 45 45 41 36 36 23 0 nan nan nan
9 12 11 9 9 9 11 11 18 18 23 12 2 2 nan nan nan nan nan nan nan nan 0 1 1 6 8 11 15 15 6 nan nan nan 1 nan nan nan nan nan nan nan nan nan nan nan nan nan nan nan nan nan nan nan nan nan nan nan nan nan nan nan nan nan nan nan nan nan nan nan nan 23 49 49 46 47 45 45 38 32 32 24 16 nan nan nan
11 11 9 8 8 9 11 14 19 19 18 3 nan nan nan nan nan nan nan nan nan 0 0 1 1 2 5 7 10 10 7 nan nan nan 1 nan nan nan nan nan nan nan nan nan nan nan nan nan nan nan nan nan nan nan nan nan nan nan nan nan nan nan nan nan nan nan nan nan nan nan nan nan nan nan 15 43 39 39 36 30 30 25 20 10 10 nan
11 11 12 10 10 12 12 15 19 19 13 nan nan nan nan nan nan nan nan nan nan 0 2 2 2 1 0 1 4 4 2 nan nan nan 0 nan nan nan nan nan nan nan nan nan nan nan nan nan nan nan nan nan nan nan nan nan nan nan nan nan nan nan nan nan nan nan nan nan nan nan nan nan nan nan nan 42 41 41 34 31 31 27 25 22 22 11
14 12 11 9 9 10 14 13 12 12 8 nan nan nan nan nan nan nan nan nan nan nan 1 3 3 4 4 0 0 0 nan nan nan nan 1 nan nan nan nan nan nan nan nan nan nan nan nan nan nan nan nan nan nan nan nan nan nan nan nan nan nan nan nan nan nan nan nan nan nan nan nan nan nan nan nan 38 15 15 32 39 39 34 30 30 30 23
16 14 11 8 8 9 10 11 10 10 2 nan nan nan nan nan nan nan nan nan nan nan nan 0 0 1 3 4 1 1 0 nan nan nan nan nan nan nan nan nan nan nan nan nan nan nan nan nan nan nan nan nan nan nan nan nan nan nan nan nan nan nan nan nan nan nan nan nan nan nan nan nan nan nan nan nan nan nan nan nan nan 6 43 17 17 29
10 9 10 10 10 10 9 8 4 4 nan nan nan nan nan nan nan nan nan nan nan nan nan nan nan 0 0 1 3 3 2 0 nan nan nan nan nan nan nan nan nan nan nan nan nan nan nan nan nan nan nan nan nan nan nan nan nan nan nan nan nan nan nan nan nan nan nan nan nan nan nan nan nan nan nan nan nan nan nan nan nan nan nan nan nan nan
11 10 10 14 14 8 8 7 0 0 nan nan nan nan nan nan nan nan nan nan nan nan nan nan nan nan nan 0 0 0 1 0 0 0 nan nan nan nan nan nan nan nan nan nan nan nan nan nan nan nan nan nan nan nan nan nan nan nan nan nan nan nan nan nan nan nan nan nan nan nan nan nan nan nan nan nan nan nan nan nan nan nan nan nan nan nan
14 12 9 8 8 7 8 3 nan nan nan nan nan nan nan nan nan nan nan nan nan nan nan nan nan nan nan nan nan nan nan nan 0 0 nan nan nan nan nan nan nan nan nan nan nan nan nan nan nan nan nan nan nan nan nan nan nan nan nan nan nan nan nan nan nan nan nan nan nan nan nan nan nan nan nan nan nan nan nan nan nan nan nan nan nan nan
22 14 9 6 6 4 1 nan nan nan nan nan nan nan nan nan nan nan nan nan nan nan nan nan nan nan nan nan nan nan nan nan nan nan nan nan nan nan nan nan nan nan nan nan nan nan nan nan nan nan nan nan nan nan nan nan nan nan nan nan nan nan nan nan nan nan nan nan nan nan nan nan nan nan nan nan nan nan nan nan nan nan nan nan nan nan
13 10 8 6 6 3 2 1 nan nan nan nan nan nan nan nan nan nan 0 nan nan nan nan nan nan nan nan nan nan nan nan nan nan nan nan nan nan nan nan nan nan nan nan nan nan nan nan nan nan nan nan nan nan nan nan nan nan nan nan nan nan nan nan nan nan nan nan nan nan nan nan nan nan nan nan nan nan nan nan nan nan nan nan nan nan nan
13 10 7 4 4 1 1 nan nan nan nan nan nan nan nan nan nan nan 1 nan nan nan nan nan nan nan nan nan nan nan nan nan nan nan nan 1 nan nan nan nan nan nan nan nan nan nan nan nan nan nan nan nan nan nan nan nan nan nan nan nan nan nan nan nan nan nan nan nan nan nan nan nan nan nan nan nan nan nan nan nan nan nan nan nan nan nan
4 7 7 7 7 4 0 nan nan nan nan nan nan nan nan nan 0 0 0 nan nan nan nan nan nan nan nan nan nan nan nan nan nan nan nan 2 3 3 nan nan nan nan nan nan nan nan nan nan nan nan nan nan nan nan nan nan nan nan nan nan nan nan nan nan nan nan nan nan nan nan nan nan nan nan nan nan nan nan nan nan nan nan nan nan nan nan
8 8 6 2 2 0 1 nan nan nan nan nan nan nan nan nan nan nan nan nan nan nan nan nan nan nan nan nan nan nan nan nan nan nan nan nan nan nan nan nan nan nan nan nan nan nan nan nan nan nan nan nan nan nan nan nan nan nan nan nan nan nan nan nan nan nan nan nan nan nan nan nan nan nan nan nan nan nan nan nan nan nan nan nan nan nan
8 6 3 1 1 0 nan nan nan nan nan nan nan nan nan nan nan nan nan nan nan nan nan nan nan nan nan nan nan nan nan nan nan nan nan nan nan nan nan nan nan nan nan nan nan nan nan nan nan nan nan nan nan nan nan nan nan nan nan nan nan nan nan nan nan nan nan nan nan nan nan nan nan nan nan nan nan nan nan nan nan nan nan nan nan nan
10 7 1 0 0 nan nan nan nan nan nan nan nan nan nan nan nan nan nan nan nan nan nan nan nan nan nan nan nan nan nan nan nan nan nan nan nan nan nan nan nan nan nan nan nan nan nan nan nan nan nan nan nan nan nan nan nan nan nan nan nan nan nan nan nan nan nan nan nan nan nan nan nan nan nan nan nan nan nan nan nan nan nan nan nan nan
6 2 1 nan nan nan nan nan nan nan nan nan nan nan nan 0 10 10 nan nan nan nan nan nan nan nan nan nan 0 0 1 nan nan nan nan nan nan nan nan nan nan nan nan nan nan nan nan nan nan nan nan nan nan nan nan nan nan nan nan nan nan nan nan nan nan nan nan nan nan nan nan nan nan nan nan nan nan nan nan nan nan nan nan nan nan nan
2 nan 0 nan nan nan nan nan nan nan nan nan nan nan nan nan nan nan nan nan nan nan nan nan nan nan nan nan nan nan nan nan nan nan nan nan nan nan nan nan nan nan nan nan nan nan nan nan nan nan nan nan nan nan nan nan nan nan nan nan nan nan nan nan nan nan nan nan nan nan nan nan nan nan nan nan nan nan nan nan nan nan nan nan nan nan
4 0 nan nan nan nan nan nan nan nan nan nan nan nan nan nan nan nan nan nan nan nan nan nan nan nan nan nan nan nan nan nan nan nan nan nan nan nan nan nan nan nan nan nan nan nan nan nan nan nan nan 0 nan nan nan nan nan nan nan nan nan nan nan nan nan nan nan nan nan nan nan nan nan nan nan nan nan nan nan nan nan nan nan nan nan nan
CIN
-17 -26 -24 -22 -22 -8 -10 -19 -15 -15 -15 -26 -31 -31 -44 -66 nan nan nan nan nan nan nan nan nan nan nan nan nan nan nan nan nan nan nan nan nan nan nan nan nan nan nan nan nan nan nan nan nan nan nan nan nan nan nan -134 -134 -107 -73 -47 -47 -37 -27 -19 -19 -11 -9 -11 -10 -10 -0 0 0 0 0 -0 -0 -0 -0 0 0 0 0 -0 -0 0
-18 -22 -31 -36 -36 -20 -13 -23 -14 -14 -9 -14 -20 -20 -27 -28 -38 -38 -52 nan nan nan nan nan nan nan nan nan nan nan nan nan nan nan nan nan nan nan nan nan nan nan nan nan nan nan nan nan nan nan nan nan nan nan nan nan nan -123 -93 -70 -70 -47 -32 -22 -22 -17 -16 -15 -17 -17 0 0 0 0 0 -2 -2 -2 -1 -0 -0 0 0 nan nan 0
-5 -7 -14 -26 -26 -24 -16 -29 -22 -22 -13 -11 -17 -17 -25 -23 -21 -21 -27 -44 -44 nan nan nan nan nan nan nan nan nan nan nan nan nan nan nan nan nan nan nan nan nan nan nan nan nan nan nan nan nan nan nan nan nan nan nan nan nan -108 -86 -86 -62 -44 -31 -31 -28 -26 -27 -21 -21 0 0 0 0 -3 -6 -4 -4 -2 -2 -2 0 0 -0 -0 0
-0 -1 -7 -13 -13 -22 -14 -20 -26 -26 -19 -14 -20 -20 -20 -12 -12 -12 -21 -27 -27 -37 -50 nan nan nan nan nan nan nan nan nan nan nan nan nan nan nan nan nan nan nan nan nan nan nan nan nan nan nan nan nan nan nan nan nan nan nan nan -89 -89 -74 -59 -49 -49 -43 -44 -44 -19 -19 -0 -1 -3 -3 -9 -7 -4 -4 -1 -0 -0 0 0 nan nan 0
-0 -0 -7 -27 -27 -15 -14 -15 -16 -16 -22 -22 -17 -17 -12 -7 -11 -11 -22 -28 -28 -27 -33 -64 -64 nan nan nan nan nan nan nan nan nan nan nan nan nan nan nan nan nan nan nan nan nan nan nan nan nan nan nan nan nan nan nan nan nan nan -95 -95 -70 -65 -62 -62 -69 -75 -67 -29 -29 -27 nan nan nan nan -7 -2 -2 -0 0 0 0 0 0 0 0
0 -0 -1 -12 -12 -10 -9 -12 -10 -10 -19 -23 -20 -20 -16 -11 -11 -11 -13 -17 -17 -24 -27 -30 -30 nan nan nan nan nan nan nan nan nan nan nan nan nan nan nan nan nan nan nan nan nan nan nan nan nan nan nan nan nan nan nan nan nan nan -91 -91 -79 -79 -90 -90 -105 nan -87 nan nan nan nan nan nan nan -3 -0 -0 0 0 0 0 0 0 0 0
-1 -2 -12 -17 -17 -12 -12 -20 -24 -24 -18 -15 -14 -14 -13 -13 -11 -11 -8 -14 -14 -26 -31 -36 -36 nan nan nan nan nan nan nan nan nan nan nan nan nan nan nan nan nan nan nan nan nan nan nan nan nan nan nan nan nan nan nan nan nan nan nan nan nan -94 -108 -108 nan nan nan nan nan nan nan nan nan nan -2 0 0 0 0 0 0 0 0 0 0
-2 -5 -7 -6 -6 -11 -15 -19 -19 -19 -30 -18 -6 -6 -6 -11 -16 -16 -24 -31 -31 -25 -16 -18 -18 -30 nan nan nan nan nan nan nan nan nan nan nan nan nan nan nan nan nan nan nan nan nan nan nan nan nan nan nan nan nan nan nan nan nan nan nan nan nan nan nan nan nan nan nan nan nan nan nan nan nan -1 -0 -0 0 0 0 0 0 0 0 0
-2 -2 -4 -3 -3 -5 -5 -7 -12 -12 -27 -23 -8 -8 -4 -5 -11 -11 -19 -21 -21 -22 -13 -10 -10 nan nan nan nan nan nan nan nan nan nan nan nan nan nan nan nan nan nan nan nan nan nan nan nan nan nan nan nan nan nan nan nan nan nan nan nan nan nan nan nan nan nan nan nan nan nan nan nan nan -2 -2 -1 -1 -1 0 0 0 0 0 0 0
-6 -4 -2 -4 -4 -7 -3 -3 -8 -8 -17 -13 -6 -6 -3 -2 -4 -4 -6 -7 -7 -16 -16 -20 -20 -24 nan nan nan nan nan nan nan nan nan nan nan nan nan nan nan nan nan nan nan nan nan nan nan nan nan -31 nan nan nan nan nan nan nan nan nan nan nan nan nan nan nan nan nan nan nan nan nan nan -2 -2 -2 -2 -1 0 0 0 0 0 0 0
-7 -7 -6 -7 -7 -8 -6 -5 -10 -10 -18 -9 -7 -7 -7 -5 -4 -4 -1 -3 -3 -9 -13 -17 -17 -34 -46 nan nan nan nan nan nan nan nan nan nan nan nan nan nan nan nan nan nan nan -2 nan nan nan nan nan nan nan nan nan nan nan nan nan nan nan nan nan nan nan nan nan nan nan -1 -1 -1 -1 -1 -1 -1 -1 -0 0 0 0 0 0 0 0
-5 -6 -8 -9 -9 -9 -10 -13 -16 -16 -16 -7 -3 -3 -5 -11 -10 -10 -0 -2 -2 -10 -13 -15 -15 -26 -39 nan nan nan nan nan nan nan nan nan nan nan nan nan nan nan nan nan nan nan -2 -1 -1 nan nan nan nan nan nan nan nan nan nan nan nan nan nan nan nan nan nan nan -1 -1 -1 -1 -1 -1 -0 -0 -0 -0 0 0 0 0 0 0 0 0
-8 -8 -8 -7 -7 -8 -10 -11 -13 -13 -12 -5 -2 -2 -2 -14 -20 -20 -7 -5 -5 -15 -16 -14 -14 -20 -34 nan nan nan nan nan nan nan nan nan nan nan nan nan nan nan nan nan nan nan nan -1 -1 -1 nan nan nan nan nan nan nan nan nan nan nan nan nan nan nan nan nan nan -1 -1 -0 -0 -0 -0 0 0 0 0 0 0 0 0 0 0 0 0
-4 -6 -6 -5 -5 -7 -10 -8 -5 -5 -4 -5 -4 -4 -5 -8 -11 -11 -6 -6 -6 -19 -24 -10 -10 -14 -31 nan nan nan nan nan nan nan nan nan nan nan nan nan nan nan nan nan nan nan nan nan nan nan nan nan nan nan nan nan nan nan nan nan nan nan nan nan nan nan nan nan -1 -1 -1 -0 -0 -0 0 0 0 0 0 0 0 0 0 0 0 0
-4 -4 -2 -3 -3 -5 -7 -5 -2 -2 -4 -9 -7 -7 -7 -6 -8 -8 -4 -3 -3 -15 -20 -12 -12 -17 -34 nan nan nan nan nan nan nan nan nan nan nan nan nan nan nan nan nan nan nan nan nan nan nan nan nan nan nan nan nan nan nan nan nan nan nan nan nan nan nan nan nan -1 -1 -1 -0 0 0 0 0 0 0 0 0 0 0 0 0 0 0
-5 -5 -2 -3 -3 -4 -7 -7 -5 -5 -6 -9 -8 -8 -4 -3 -7 -7 -4 -3 -3 -6 -5 -3 -3 -10 -25 nan nan nan nan nan nan nan nan nan nan nan nan nan nan nan nan nan nan nan nan nan nan nan nan nan nan nan nan nan nan nan nan nan nan nan nan nan nan nan nan nan -1 -1 -1 -0 -0 -0 0 0 0 0 0 0 0 0 0 0 0 0
-5 -4 -3 -4 -4 -4 -7 -7 -6 -6 -7 -6 -6 -6 -4 -2 -2 -2 -1 -1 -1 -1 -3 -3 -3 -3 -12 nan nan nan nan nan nan nan nan nan nan nan nan nan nan nan nan nan nan nan nan nan nan nan nan nan nan nan nan nan nan nan nan nan nan nan nan nan nan nan nan nan -1 -1 -1 -0 0 0 0 0 0 0 0 0 0 0 0 0 0 0
-5 -5 -3 -3 -3 -5 -6 -6 -7 -7 -7 -3 -3 -3 -3 -2 -1 -1 -1 -2 -2 -2 -3 -3 -3 -7 -8 -14 nan nan nan nan nan nan nan nan nan nan nan nan nan nan nan nan nan nan nan nan nan nan nan nan nan nan nan nan nan nan nan nan nan nan nan nan nan nan nan nan -1 -1 -0 0 0 0 0 0 0 0 0 0 0 0 0 0 0 0
-3 -5 -3 -3 -3 -5 -6 -6 -5 -5 -3 -2 -2 -2 -2 -3 -3 -3 -3 -3 -3 -3 -3 -4 -4 -6 -7 -4 nan nan nan nan nan nan nan nan nan nan nan nan nan nan nan nan nan nan nan nan nan nan nan nan nan nan nan nan nan nan nan nan nan nan nan nan nan nan nan -1 -0 -0 0 0 0 0 0 0 0 0 0 0 0 0 0 0 0 0
-2 -4 -4 -5 -5 -4 -5 -6 -6 -6 -4 -2 -1 -1 -2 -4 -4 -4 -3 -4 -4 -2 -2 -1 -1 -3 -6 -6 nan nan nan nan nan nan nan nan nan nan nan nan nan nan nan nan nan nan nan nan nan nan nan nan nan nan nan nan nan nan nan nan nan nan nan nan nan nan -1 -0 0 0 0 0 0 0 0 0 0 0 0 0 0 0 0 0 0 0
-1 -3 -7 -7 -7 -2 -4 -7 -9 -9 -7 -4 -2 -2 -2 -2 -2 -2 -2 -2 -2 -1 -1 -1 -1 -2 -6 -6 -38 -38 nan nan nan nan nan nan nan nan nan nan nan nan nan nan nan nan nan nan nan nan nan nan nan nan nan -2 -2 -6 nan nan nan nan nan nan nan nan -0 0 0 0 0 0 0 0 0 0 0 0 0 0 0 0 0 0 0 0
-1 -2 -9 -10 -10 -3 -2 -7 -7 -7 -6 -2 -1 -1 -2 -2 -1 -1 -2 -1 -1 -1 -1 -1 -1 -4 -5 -2 -18 -18 nan nan nan nan nan nan nan nan nan nan nan nan nan nan nan nan nan nan nan nan nan nan nan nan 0 -0 -0 -6 nan nan nan nan nan nan nan -1 0 0 0 0 0 0 0 0 0 0 0 0 0 0 0 0 0 0 0 0
-1 -2 -6 -7 -7 -5 -5 -7 -7 -7 -6 -2 -0 -0 -2 -3 -2 -2 -4 -2 -2 -2 -3 -4 -4 -8 -6 -4 nan nan nan nan nan nan nan nan nan nan nan nan nan nan nan nan nan nan nan nan nan nan nan 0 0 0 0 -1 -1 nan nan nan nan nan -1 -0 -0 0 0 0 0 0 0 0 0 0 0 0 0 0 0 0 0 0 0 0 0 0
-4 -3 -4 -5 -5 -5 -5 -5 -7 -7 -8 -6 -5 -5 -4 -4 -2 -2 -4 -4 -4 -3 -5 -7 -7 -6 -8 -9 nan nan nan nan nan nan nan nan nan nan nan nan nan nan nan nan nan nan nan nan nan nan nan 0 0 0 -0 -6 -6 nan nan nan nan -0 0 0 0 0 0 0 0 0 0 0 0 0 0 0 0 0 0 0 0 0 0 0 0 0
-7 -4 -4 -5 -5 -4 -4 -4 -4 -4 -6 -7 -6 -6 -5 -5 -5 -5 -5 -3 -3 -2 -2 -2 -2 -2 -8 -11 nan nan nan nan nan nan nan nan nan nan nan nan nan nan nan nan nan nan nan nan nan nan nan nan -0 -0 -1 nan nan nan -1 -0 -0 0 0 0 0 0 0 0 0 0 0 0 0 0 0 0 0 0 0 0 0 0 0 0 0 0
-6 -5 -4 -2 -2 -0 0 0 0 0 -1 -3 -5 -5 -5 -4 -4 -4 -3 -3 -3 -2 -1 -1 -1 -3 -10 -12 -19 -19 nan nan nan nan nan nan nan nan nan nan nan nan nan nan nan nan nan nan nan nan nan nan -0 -0 nan -0 -0 -0 0 0 0 0 0 0 0 0 0 0 0 0 0 0 0 0 0 0 0 0 0 0 0 0 0 0 0 0
0 0 0 0 0 0 0 0 0 0 0 0 -3 -3 -4 -2 -2 -2 -2 -3 -3 -2 -1 -0 -0 -3 -13 -10 -15 -15 nan nan nan nan nan nan nan nan nan nan nan nan nan nan nan nan nan nan nan nan nan nan -3 -3 -0 0 0 0 0 0 0 0 0 0 0 0 0 0 0 0 0 0 0 0 0 0 0 0 0 0 0 0 0 0 0 0
0 0 0 0 0 0 0 0 0 0 0 0 0 0 -2 -1 -0 -0 -1 -3 -3 -3 -3 -1 -1 -2 -5 -7 -15 -15 nan nan nan nan nan nan nan nan nan nan nan nan nan nan nan nan -0 nan nan nan nan nan nan nan -1 -0 -0 0 0 0 0 0 0 0 0 0 0 0 0 0 0 0 0 0 0 0 0 0 0 0 0 0 0 0 0 -12
0 0 0 0 0 0 0 0 0 0 0 0 0 0 -0 -0 0 0 -1 -3 -3 -0 -1 -1 -1 -1 -2 -6 -11 -11 nan nan nan nan nan nan nan nan nan nan nan nan nan nan nan nan nan nan nan nan nan nan nan nan nan 0 0 0 0 0 0 0 0 0 0 0 0 0 0 0 0 0 0 0 0 0 0 0 0 0 0 0 0 -3 -3 nan
-10 -4 0 0 0 0 0 0 0 0 0 0 0 0 -0 -0 -0 -0 -1 -1 -1 -0 -0 -0 -0 -1 -1 -3 -9 -9 nan nan nan nan nan nan nan nan nan nan nan nan nan nan nan nan nan nan nan nan nan nan nan nan nan nan nan -1 -0 0 0 -0 0 0 0 0 0 0 0 0 0 0 0 0 0 0 0 0 0 0 0 0 -2 nan nan nan
nan nan -13 -7 -7 -4 -5 -5 -1 -1 0 0 0 0 -1 -3 -3 -3 -2 -1 -1 -0 -0 -0 -0 -0 -0 -0 -2 -2 nan nan nan nan nan nan nan nan nan nan nan nan nan nan nan nan nan nan nan nan nan nan nan nan nan nan nan nan nan -2 -2 -0 0 0 0 0 0 0 0 0 0 0 0 0 0 0 0 0 0 0 0 0 nan nan nan nan
-10 -8 -8 -9 -9 -10 -9 -7 -6 -6 -5 -7 -8 -8 -7 -7 -7 -7 nan -1 -1 -1 -0 -0 -0 -0 -0 -0 -0 -0 -4 nan nan nan nan nan nan nan nan nan nan nan nan nan nan nan nan nan nan nan nan nan nan nan nan nan nan nan nan nan nan nan 0 0 0 0 0 0 0 0 0 0 0 0 0 0 0 0 0 0 0 0 nan nan nan nan
-6 -6 -9 -10 -10 -10 -8 -9 -8 -8 -6 -8 -19 -19 nan nan -4 -4 -3 nan nan -1 -0 -0 -0 -0 -0 -0 -0 -0 -11 nan nan nan nan nan nan nan nan nan nan nan nan nan nan nan nan nan nan nan nan nan nan nan nan nan nan nan nan nan nan nan nan 0 0 -0 0 0 0 0 0 0 0 0 0 0 0 0 0 0 0 0 -6 nan nan nan
-7 -6 -7 -8 -8 -9 -9 -11 -8 -8 -7 -12 -19 -19 nan nan nan nan nan nan nan nan -1 -0 -0 -0 -0 -0 -0 -0 -5 nan nan nan -1 nan nan nan nan nan nan nan nan nan nan nan nan nan nan nan nan nan nan nan nan nan nan nan nan nan nan nan nan nan nan nan nan nan nan nan nan -1 0 0 0 0 0 0 0 0 0 0 0 nan nan nan
-7 -6 -7 -9 -9 -8 -8 -9 -8 -8 -8 -17 nan nan nan nan nan nan nan nan nan -1 -1 -1 -1 -1 -0 -0 -0 -0 -3 nan nan nan -0 nan nan nan nan nan nan nan nan nan nan nan nan nan nan nan nan nan nan nan nan nan nan nan nan nan nan nan nan nan nan nan nan nan nan nan nan nan nan nan -2 0 0 0 0 0 0 0 0 0 0 nan
-5 -5 -6 -8 -8 -7 -7 -6 -6 -6 -7 nan nan nan nan nan nan nan nan nan nan -1 -0 -0 -0 -1 -1 -0 -0 -0 -2 nan nan nan -0 nan nan nan nan nan nan nan nan nan nan nan nan nan nan nan nan nan nan nan nan nan nan nan nan nan nan nan nan nan nan nan nan nan nan nan nan nan nan nan nan 0 0 0 0 0 0 0 0 0 0 0
-4 -5 -7 -9 -9 -8 -5 -7 -7 -7 -7 nan nan nan nan nan nan nan nan nan nan nan -0 -0 -0 -0 0 -0 -0 -0 nan nan nan nan -0 nan nan nan nan nan nan nan nan nan nan nan nan nan nan nan nan nan nan nan nan nan nan nan nan nan nan nan nan nan nan nan nan nan nan nan nan nan nan nan nan 0 -4 -4 0 0 0 0 0 0 0 0
-4 -4 -7 -10 -10 -9 -7 -6 -7 -7 -9 nan nan nan nan nan nan nan nan nan nan nan nan -0 -0 -0 0 0 0 0 -0 nan nan nan nan nan nan nan nan nan nan nan nan nan nan nan nan nan nan nan nan nan nan nan nan nan nan nan nan nan nan nan nan nan nan nan nan nan nan nan nan nan nan nan nan nan nan nan nan nan nan -21 0 -11 -11 0
-5 -6 -7 -7 -7 -8 -7 -6 -8 -8 nan nan nan nan nan nan nan nan nan nan nan nan nan nan nan -1 -0 0 0 0 0 0 nan nan nan nan nan nan nan nan nan nan nan nan nan nan nan nan nan nan nan nan nan nan nan nan nan nan nan nan nan nan nan nan nan nan nan nan nan nan nan nan nan nan nan nan nan nan nan nan nan nan nan nan nan nan
-5 -6 -6 -5 -5 -9 -8 -6 -12 -12 nan nan nan nan nan nan nan nan nan nan nan nan nan nan nan nan nan 0 0 0 0 -0 0 0 nan nan nan nan nan nan nan nan nan nan nan nan nan nan nan nan nan nan nan nan nan nan nan nan nan nan nan nan nan nan nan nan nan nan nan nan nan nan nan nan nan nan nan nan nan nan nan nan nan nan nan nan
-4 -5 -6 -9 -9 -10 -8 -10 nan nan nan nan nan nan nan nan nan nan nan nan nan nan nan nan nan nan nan nan nan nan nan nan -0 -0 nan nan nan nan nan nan nan nan nan nan nan nan nan nan nan nan nan nan nan nan nan nan nan nan nan nan nan nan nan nan nan nan nan nan nan nan nan nan nan nan nan nan nan nan nan nan nan nan nan nan nan nan
-1 -3 -6 -9 -9 -10 -14 nan nan nan nan nan nan nan nan nan nan nan nan nan nan nan nan nan nan nan nan nan nan nan nan nan nan nan nan nan nan nan nan nan nan nan nan nan nan nan nan nan nan nan nan nan nan nan nan nan nan nan nan nan nan nan nan nan nan nan nan nan nan nan nan nan nan nan nan nan nan nan nan nan nan nan nan nan nan nan
-4 -5 -7 -9 -9 -12 -10 -8 nan nan nan nan nan nan nan nan nan nan -0 nan nan nan nan nan nan nan nan nan nan nan nan nan nan nan nan nan nan nan nan nan nan nan nan nan nan nan nan nan nan nan nan nan nan nan nan nan nan nan nan nan nan nan nan nan nan nan nan nan nan nan nan nan nan nan nan nan nan nan nan nan nan nan nan nan nan nan
-4 -6 -9 -12 -12 -14 -10 nan nan nan nan nan nan nan nan nan nan nan -0 nan nan nan nan nan nan nan nan nan nan nan nan nan nan nan nan 0 nan nan nan nan nan nan nan nan nan nan nan nan nan nan nan nan nan nan nan nan nan nan nan nan nan nan nan nan nan nan nan nan nan nan nan nan nan nan nan nan nan nan nan nan nan nan nan nan nan nan
-11 -8 -9 -7 -7 -7 -8 nan nan nan nan nan nan nan nan nan 0 0 -0 nan nan nan nan nan nan nan nan nan nan nan nan nan nan nan nan 0 0 0 nan nan nan nan nan nan nan nan nan nan nan nan nan nan nan nan nan nan nan nan nan nan nan nan nan nan nan nan nan nan nan nan nan nan nan nan nan nan nan nan nan nan nan nan nan nan nan nan
-8 -7 -7 -9 -9 -9 -4 nan nan nan nan nan nan nan nan nan nan nan nan nan nan nan nan nan nan nan nan nan nan nan nan nan nan nan nan nan nan nan nan nan nan nan nan nan nan nan nan nan nan nan nan nan nan nan nan nan nan nan nan nan nan nan nan nan nan nan nan nan nan nan nan nan nan nan nan nan nan nan nan nan nan nan nan nan nan nan
-7 -8 -8 -9 -9 -8 nan nan nan nan nan nan nan nan nan nan nan nan nan nan nan nan nan nan nan nan nan nan nan nan nan nan nan nan nan nan nan nan nan nan nan nan nan nan nan nan nan nan nan nan nan nan nan nan nan nan nan nan nan nan nan nan nan nan nan nan nan nan nan nan nan nan nan nan nan nan nan nan nan nan nan nan nan nan nan nan
-4 -5 -7 -8 -8 nan nan nan nan nan nan nan nan nan nan nan nan nan nan nan nan nan nan nan nan nan nan nan nan nan nan nan nan nan nan nan nan nan nan nan nan nan nan nan nan nan nan nan nan nan nan nan nan nan nan nan nan nan nan nan nan nan nan nan nan nan nan nan nan nan nan nan nan nan nan nan nan nan nan nan nan nan nan nan nan nan
-7 -8 -7 nan nan nan nan nan nan nan nan nan nan nan nan 0 0 0 nan nan nan nan nan nan nan nan nan nan -0 -0 0 nan nan nan nan nan nan nan nan nan nan nan nan nan nan nan nan nan nan nan nan nan nan nan nan nan nan nan nan nan nan nan nan nan nan nan nan nan nan nan nan nan nan nan nan nan nan nan nan nan nan nan nan nan nan nan
-12 nan -8 nan nan nan nan nan nan nan nan nan nan nan nan nan nan nan nan nan nan nan nan nan nan nan nan nan nan nan nan nan nan nan nan nan nan nan nan nan nan nan nan nan nan nan nan nan nan nan nan nan nan nan nan nan nan nan nan nan nan nan nan nan nan nan nan nan nan nan nan nan nan nan nan nan nan nan nan nan nan nan nan nan nan nan
-5 -9 nan nan nan nan nan nan nan nan nan nan nan nan nan nan nan nan nan nan nan nan nan nan nan nan nan nan nan nan nan nan nan nan nan nan nan nan nan nan nan nan nan nan nan nan nan nan nan nan nan -0 nan nan nan nan nan nan nan nan nan nan nan nan nan nan nan nan nan nan nan nan nan nan nan nan nan nan nan nan nan nan nan nan nan nan
Wind_Speed
8 7 7 9 8 7 8 9 11 11 10 9 9 9 8 8 9 10 12 13 13 13 13 13 14 15 16 19 21 23 24 25 26 27 28 29 30 31 31 30 30 29 29 29 29 29 28 27 27 26 25 25 26 26 26 26 26 26 26 26 26 26 26 26 27 27 27 27 27 28 30 31 32 31 31 30 29 28 27 26 25 24 23 22 22 21
10 10 8 10 9 9 8 10 10 10 11 10 10 9 9 10 10 9 10 11 12 13 12 13 14 15 16 17 20 22 23 25 26 27 27 28 29 30 30 29 29 29 30 31 31 31 30 28 26 25 24 24 25 25 26 26 26 26 26 26 26 26 26 27 27 26 26 25 26 28 31 32 32 31 30 29 28 27 26 25 25 24 23 22 22 21
11 11 10 10 11 11 9 10 10 11 12 12 11 11 11 12 11 10 9 10 11 11 11 11 12 13 14 15 18 20 22 24 25 26 27 28 29 29 29 28 28 28 30 31 31 32 32 30 27 25 24 23 24 25 25 25 25 25 25 26 26 26 26 26 25 24 23 24 26 29 31 32 31 30 28 27 27 26 25 24 24 23 22 22 21 21
11 11 10 9 9 10 11 11 10 10 11 11 12 12 13 12 11 10 9 10 10 10 10 11 11 11 11 12 14 17 20 22 24 26 27 28 28 28 28 27 27 28 29 30 31 32 32 31 29 26 24 24 24 25 26 26 26 26 25 26 26 26 26 25 24 23 22 24 26 29 30 30 29 28 27 26 26 25 24 24 23 23 22 22 22 22
11 11 11 8 9 10 12 11 11 10 9 9 9 10 11 11 10 9 9 10 10 10 10 12 12 11 10 11 13 16 19 22 23 25 26 27 28 28 28 27 27 28 29 30 31 32 32 31 30 27 25 25 25 26 26 26 26 26 26 26 25 25 25 24 23 22 22 24 26 27 28 28 27 26 26 25 25 25 24 24 23 23 22 22 22 22
11 11 10 9 9 9 10 10 9 9 8 8 8 9 9 9 9 9 9 9 9 9 9 10 10 11 11 12 13 16 18 20 22 24 25 26 27 27 28 27 27 27 28 29 30 31 31 30 29 28 26 25 26 26 27 27 27 26 26 26 25 25 25 24 23 22 23 24 25 26 26 26 25 25 25 25 25 25 25 24 23 23 22 22 22 22
11 10 9 9 9 9 9 9 8 8 8 7 7 8 8 8 8 9 9 9 9 9 9 10 10 11 12 12 14 15 16 18 20 22 23 24 25 26 26 26 26 27 27 28 28 29 29 29 28 28 27 27 27 27 27 27 27 27 26 26 25 25 25 24 24 24 24 25 26 26 26 25 25 25 26 26 26 25 25 24 24 23 23 22 22 22
11 10 10 10 10 9 9 9 9 8 8 7 7 7 8 7 8 9 10 10 9 9 9 10 10 10 10 11 12 12 13 14 15 16 18 20 21 22 23 24 25 25 25 25 25 25 26 26 26 27 28 28 28 28 28 28 27 27 27 26 26 26 26 25 25 25 26 26 27 27 26 26 26 26 26 26 26 25 24 24 23 23 22 22 22 22
12 12 11 11 11 10 10 10 10 10 9 8 8 8 9 9 9 9 9 10 9 9 9 9 9 9 9 9 9 10 11 11 11 12 13 13 14 16 19 20 21 22 23 22 22 22 22 23 24 26 27 28 28 28 28 28 28 27 27 27 26 26 26 26 26 27 27 28 28 28 27 27 26 26 26 26 25 25 24 23 23 23 22 22 22 22
13 13 13 11 11 10 10 10 10 9 9 8 8 8 9 10 10 10 10 9 8 7 7 8 8 8 8 7 7 8 9 11 12 14 15 14 15 15 16 17 17 18 21 21 21 21 21 22 23 25 26 27 28 28 27 28 28 28 27 27 26 26 26 27 27 28 29 29 29 29 28 28 27 27 26 25 25 24 23 23 22 22 22 22 22 22
12 12 12 11 10 9 9 9 8 8 8 8 8 8 8 8 9 10 11 9 7 6 6 6 6 7 7 6 6 6 7 8 10 12 15 16 17 18 18 17 17 18 20 20 20 20 20 21 22 24 25 26 27 27 27 27 28 28 27 27 26 27 27 28 29 29 30 30 30 30 29 29 28 27 26 25 24 23 23 22 22 22 22 22 22 22
10 10 9 9 9 9 9 9 9 8 7 7 7 7 6 6 7 8 10 10 9 8 7 6 5 6 7 6 6 6 6 7 7 8 9 11 13 14 14 14 15 16 17 18 18 19 19 20 21 22 23 24 25 26 26 26 27 27 27 27 27 27 28 29 30 30 31 31 31 31 30 30 29 28 27 25 24 23 22 21 21 21 21 21 22 22
9 8 8 9 9 9 9 9 9 8 7 7 7 8 7 5 5 6 8 10 10 9 8 8 7 7 7 7 6 5 6 6 7 7 7 7 8 8 8 8 9 9 10 11 12 14 16 18 19 20 21 22 24 25 26 26 27 27 27 27 28 28 29 30 31 31 31 31 31 31 31 30 29 28 27 26 24 23 22 21 20 20 20 20 21 21
9 8 8 9 9 9 9 9 9 9 8 7 7 8 8 7 6 7 7 9 9 8 8 9 8 7 6 6 6 5 6 6 6 6 6 6 6 6 5 6 7 7 7 8 8 10 12 13 14 15 19 20 22 24 25 27 28 28 28 28 28 29 30 30 31 31 32 32 31 31 30 30 29 28 27 26 25 23 22 21 20 20 19 19 19 19
9 9 10 10 10 9 9 9 9 10 9 9 8 9 9 9 9 9 9 10 9 8 7 8 9 8 6 6 5 5 6 5 6 6 7 6 6 5 5 6 6 7 6 7 8 9 10 10 10 10 13 17 20 22 24 25 27 29 29 29 29 30 30 31 31 32 32 32 31 31 31 30 29 29 28 27 26 24 23 21 20 19 19 18 18 18
9 9 10 11 11 10 10 9 10 11 11 11 10 10 10 10 10 10 9 11 9 8 7 8 8 8 7 5 4 4 5 5 5 6 7 6 5 5 5 6 7 7 7 8 8 8 8 8 9 10 11 15 19 22 24 25 26 28 28 29 29 30 31 31 32 32 32 32 31 31 30 30 29 29 28 28 27 25 24 22 21 20 19 18 18 18
9 9 10 11 11 11 10 10 10 11 11 11 10 10 10 10 10 10 10 10 8 7 6 7 7 8 7 6 3 3 4 4 4 5 6 6 5 4 6 6 7 9 8 8 8 8 7 8 9 9 10 14 19 22 24 25 25 26 27 28 29 30 31 31 32 32 31 31 30 29 29 28 28 28 28 27 27 26 25 23 22 21 20 19 19 19
10 10 10 10 11 11 10 10 10 10 10 10 10 10 10 10 9 9 9 8 8 8 8 7 7 7 8 7 4 2 4 4 4 5 5 7 6 4 5 6 7 9 9 9 9 8 7 8 9 10 11 16 19 21 23 24 25 26 27 28 29 30 31 31 30 30 29 28 28 27 26 26 26 26 26 26 26 25 25 24 23 22 21 21 20 20
10 10 10 10 10 10 10 9 9 9 8 9 9 10 11 11 11 11 12 11 11 10 10 10 9 7 7 8 5 2 3 3 4 4 5 7 6 4 4 5 7 8 9 9 8 8 7 7 9 11 14 17 19 21 23 24 25 26 27 28 28 29 29 29 28 27 27 26 26 25 25 24 24 24 24 24 25 25 24 24 24 23 22 21 21 20
11 10 10 10 10 10 11 10 9 9 8 9 9 10 11 11 11 11 11 10 10 10 9 10 9 8 6 7 6 3 2 3 3 5 6 7 6 4 4 5 6 8 9 9 8 7 6 6 7 10 14 16 19 21 22 24 25 26 26 26 27 27 26 26 26 26 26 25 25 25 24 24 24 24 24 24 24 24 24 24 24 23 22 22 21 21
12 12 11 9 9 10 10 9 10 10 11 11 11 11 11 10 10 10 9 9 9 9 8 7 8 8 6 7 6 4 2 2 3 4 4 5 5 4 3 5 6 7 9 9 7 5 4 5 5 7 10 14 17 19 21 22 23 24 24 23 24 24 24 25 25 25 25 25 25 25 25 24 24 24 23 23 24 24 24 24 23 23 22 22 21 21
12 12 12 11 11 11 11 11 12 14 14 13 12 10 10 10 10 11 10 10 11 11 11 11 11 10 9 10 9 6 1 2 3 4 4 5 6 5 2 4 5 7 9 7 5 2 2 3 4 5 9 13 16 17 19 19 20 20 20 21 22 23 23 24 24 25 25 25 25 25 25 24 24 24 23 23 23 23 23 23 22 22 21 21 21 21
12 12 13 13 13 12 12 12 13 12 12 11 11 10 9 10 11 11 11 11 11 12 12 12 12 12 12 12 10 8 4 4 4 4 4 6 7 6 2 3 4 6 8 6 3 1 1 2 3 4 7 12 14 15 16 17 17 18 19 21 22 23 23 23 24 24 24 24 24 24 24 24 23 23 23 23 22 22 22 22 21 21 21 21 21 21
13 13 13 12 12 11 11 11 11 11 10 10 10 10 10 10 11 11 11 11 12 12 12 12 12 13 12 12 11 8 6 5 5 5 5 7 8 6 2 3 5 6 7 3 1 1 1 1 2 2 4 9 12 14 14 15 17 19 20 21 22 23 23 23 23 23 23 24 24 23 23 23 23 22 22 22 21 21 21 21 20 20 20 20 20 20
13 12 12 12 13 13 13 14 14 14 13 12 12 11 11 12 13 13 12 12 11 11 11 11 12 12 10 9 8 7 5 5 5 5 5 6 6 5 2 3 5 5 5 0 1 2 1 0 1 2 2 5 9 12 14 16 18 20 21 22 22 23 23 23 23 23 23 23 23 23 22 22 22 21 21 21 21 20 20 20 20 20 20 20 20 20
17 16 16 18 20 23 25 26 26 26 26 22 17 14 12 12 12 12 12 11 11 11 11 11 12 11 8 7 7 6 4 3 5 6 5 5 5 5 1 2 3 4 2 2 2 2 1 0 1 2 3 2 5 11 15 17 19 20 21 22 22 22 22 23 23 23 23 23 22 22 22 21 21 21 20 20 20 19 19 19 19 19 20 19 19 19
22 22 24 25 27 28 29 30 32 33 34 31 26 22 17 14 12 12 12 11 10 9 9 10 10 10 8 8 7 6 4 3 4 5 5 5 5 4 1 1 2 2 1 2 2 1 1 1 1 2 3 3 1 7 15 17 19 20 21 21 21 22 22 22 22 22 22 22 22 21 21 21 21 20 20 20 19 19 19 19 20 19 19 18 16 16
20 21 23 25 26 28 29 30 31 31 32 32 32 30 23 16 12 12 11 8 7 7 8 9 10 10 10 10 9 7 5 3 4 4 4 3 3 2 1 1 1 2 2 2 2 2 1 1 1 2 3 4 2 3 11 15 17 18 19 20 20 21 21 21 21 21 21 21 21 21 21 21 20 20 20 20 20 20 20 20 20 19 18 14 10 8
19 21 23 24 25 26 27 27 27 27 28 29 29 26 19 12 9 9 8 8 8 9 11 11 11 11 10 10 9 8 6 4 4 4 5 3 2 2 1 1 1 2 3 2 2 2 2 2 2 2 2 3 3 2 5 10 13 14 16 18 19 19 20 20 20 20 20 20 20 20 20 20 20 20 20 20 20 20 20 20 19 17 13 10 7 5
17 18 19 20 20 20 20 19 19 21 23 24 23 20 13 8 7 8 9 9 10 10 11 11 11 10 10 10 9 8 6 4 3 5 6 4 3 2 2 2 2 2 3 3 2 1 1 2 2 2 1 2 3 3 2 4 6 7 9 13 15 17 18 19 19 19 19 19 20 20 20 20 20 20 20 20 20 21 21 20 18 13 8 7 6 5
15 15 14 14 14 14 14 13 14 15 16 17 16 13 9 7 6 7 8 8 9 10 11 11 11 10 10 9 8 7 6 3 2 4 6 4 4 3 4 3 3 3 3 3 2 2 1 0 1 1 1 1 2 2 3 3 3 3 4 6 9 11 16 17 17 17 18 18 19 19 19 19 19 20 20 20 20 20 20 20 17 12 7 6 5 5
14 13 12 12 12 11 11 11 11 11 11 11 10 8 7 7 6 6 7 7 8 9 10 10 10 10 10 9 9 8 6 3 1 4 5 4 3 3 4 4 4 3 3 2 2 2 2 2 1 0 1 1 2 2 3 3 2 3 3 4 5 7 13 15 15 15 15 17 18 19 19 19 19 19 20 20 20 20 20 20 16 12 7 6 6 6
13 12 11 11 11 10 10 10 10 9 9 8 7 6 6 6 7 7 7 7 7 8 9 9 10 10 10 10 10 9 7 3 2 4 6 4 2 2 3 4 4 4 3 1 0 1 2 2 3 2 2 2 2 2 2 2 2 3 3 4 4 5 10 11 11 11 11 13 15 16 18 18 19 19 19 20 20 20 20 20 17 14 9 7 6 6
13 13 12 11 11 10 10 10 10 9 8 7 6 6 6 6 7 8 8 7 7 7 8 9 9 10 10 10 10 10 8 4 3 5 6 4 3 2 3 5 5 5 4 2 1 1 1 2 3 3 3 2 2 2 2 2 2 2 3 3 3 4 5 6 6 6 7 8 8 9 12 13 16 18 18 19 19 19 19 19 18 16 13 9 7 7
12 12 12 11 11 10 10 10 10 9 8 7 6 6 7 7 8 8 8 7 7 7 7 8 9 9 10 10 10 10 9 4 3 5 7 5 4 3 3 5 5 5 5 4 3 2 2 3 4 5 4 3 2 2 2 2 2 2 3 3 3 3 3 4 4 5 5 5 4 4 4 5 8 11 14 16 18 19 19 20 19 18 17 14 11 8
12 12 11 11 10 10 10 10 10 9 8 7 6 6 7 8 8 8 8 7 7 7 8 8 8 8 9 9 10 11 10 6 4 6 8 7 5 4 3 4 5 6 6 5 4 4 3 4 5 6 6 5 3 2 1 1 2 3 3 4 4 4 3 4 4 4 4 4 4 3 3 3 3 5 8 14 17 19 20 20 20 20 19 17 15 13
11 11 11 10 10 10 10 10 9 9 8 7 7 8 8 9 9 8 7 6 6 6 7 8 8 8 8 8 9 9 10 7 5 7 9 8 6 4 3 4 5 6 6 6 5 5 5 5 5 5 5 4 4 3 2 2 2 3 3 3 3 4 3 4 4 5 5 5 5 4 4 4 4 4 6 12 15 17 18 20 20 20 20 19 18 17
11 11 11 10 10 10 10 10 9 9 8 8 9 9 10 10 9 8 7 6 6 6 6 6 6 7 9 9 9 8 8 6 5 6 7 6 5 3 3 3 4 5 4 5 6 6 6 6 6 5 4 3 3 4 4 4 4 3 3 3 3 4 3 3 3 4 5 5 5 5 5 5 4 4 4 5 6 6 7 8 10 13 17 16 17 18
11 11 11 11 10 10 10 10 10 9 9 9 9 10 10 9 9 8 6 6 6 6 6 5 5 6 7 9 9 9 8 7 5 4 3 2 1 1 2 2 3 3 3 3 4 5 6 6 6 6 5 4 4 3 3 4 4 4 4 3 3 3 3 3 3 3 4 5 6 6 5 4 4 4 4 4 4 4 4 3 2 3 5 5 8 12
11 11 11 11 10 10 10 10 10 9 9 9 10 10 9 8 7 6 5 5 5 5 5 5 5 5 5 6 7 8 8 7 7 6 4 3 2 1 1 2 3 3 3 3 3 3 4 4 5 5 6 6 5 5 4 4 4 5 6 4 3 2 2 2 3 3 3 4 5 5 4 3 4 4 4 4 4 4 4 3 3 3 3 3 3 3
12 12 11 11 11 10 10 10 9 9 8 8 8 8 7 6 5 5 5 4 4 4 3 4 4 4 4 4 5 6 7 7 7 7 5 5 4 3 3 3 3 3 4 3 3 2 3 3 4 4 5 5 6 6 6 5 6 7 7 5 3 2 2 3 3 3 3 3 4 5 5 5 5 5 4 4 4 3 3 4 4 3 3 2 3 3
13 12 12 11 11 10 9 9 9 9 9 8 7 7 6 5 5 5 5 4 3 3 3 3 3 3 3 3 4 5 6 7 7 8 7 7 6 5 4 3 3 3 4 4 4 3 3 4 4 5 5 5 5 5 4 5 6 6 6 5 5 5 4 3 3 2 2 3 4 4 6 5 4 4 4 4 3 2 3 3 4 5 4 2 2 3
12 12 11 11 10 10 10 10 9 8 8 7 7 6 5 4 4 5 5 4 4 3 3 3 3 3 3 3 3 4 5 6 7 8 8 8 8 7 5 5 4 3 3 4 4 4 3 4 4 4 4 5 6 6 6 5 5 5 5 6 7 6 3 1 1 1 2 3 3 4 4 4 4 4 4 4 3 2 2 3 4 4 5 3 3 2
12 11 11 10 10 9 8 8 8 7 7 8 7 6 5 4 5 5 5 4 3 3 3 2 2 2 2 3 3 3 4 5 7 8 9 10 10 8 7 6 5 4 3 4 4 4 4 4 4 3 2 3 5 6 7 6 5 4 4 5 5 5 4 3 2 2 2 3 3 3 3 4 4 4 4 3 3 3 2 2 2 2 2 3 3 3
11 11 10 10 10 9 9 9 9 8 8 8 7 6 5 4 4 4 4 3 3 3 2 2 2 2 2 2 2 3 3 4 5 6 7 10 11 11 9 7 6 6 5 4 3 4 4 4 4 3 2 3 4 5 6 6 5 5 4 4 4 4 3 3 4 4 3 3 3 2 3 3 4 4 4 3 2 2 2 2 2 2 2 2 3 3
10 10 11 10 10 10 10 10 9 9 8 8 7 5 4 4 3 3 4 3 3 2 2 2 1 1 2 2 2 2 2 3 4 4 5 6 8 8 8 8 7 6 5 5 5 4 4 4 4 4 4 4 4 4 4 5 6 5 4 5 5 5 4 3 3 3 4 4 3 3 3 3 4 4 4 3 2 1 1 2 2 3 2 2 2 3
10 11 11 10 10 10 9 9 9 9 9 7 6 5 4 3 3 3 3 3 2 2 2 2 1 1 1 2 2 2 2 3 3 3 4 5 6 6 6 7 7 7 6 6 6 6 6 4 4 4 4 5 4 4 3 4 4 5 4 4 4 4 3 2 2 2 3 4 4 3 3 3 4 4 3 3 2 1 1 0 1 2 3 3 3 3
11 11 11 10 10 10 9 9 9 9 9 7 6 4 3 4 3 3 2 2 2 2 2 1 1 1 1 1 2 2 2 3 3 3 3 4 4 5 5 5 5 6 6 7 7 7 6 6 5 4 3 4 4 4 3 3 3 4 3 3 4 4 3 2 2 2 3 3 4 4 3 4 4 4 4 3 3 2 1 0 1 1 2 3 3 3
10 10 10 10 10 9 9 9 9 9 9 7 5 4 3 4 4 4 2 2 2 2 2 1 1 1 1 1 2 2 3 3 3 3 3 3 3 3 3 3 4 4 4 5 5 5 5 6 7 6 4 4 4 5 4 3 3 3 3 3 3 3 3 3 2 2 3 3 3 3 3 3 3 3 4 4 3 2 1 0 1 1 2 2 3 3
10 10 10 9 9 9 10 10 10 9 9 7 5 4 2 2 3 3 2 2 2 2 1 1 1 1 1 1 2 2 3 2 2 2 3 2 2 2 2 2 2 2 2 3 3 3 3 4 5 6 7 7 6 5 4 4 3 3 3 2 2 3 3 3 2 2 3 3 3 3 3 2 2 3 4 4 3 2 1 0 1 1 1 2 3 3
10 10 9 9 9 9 9 10 10 9 8 7 5 3 2 2 2 2 2 2 2 2 2 1 1 1 1 2 2 2 3 3 3 3 3 2 2 2 2 2 2 2 2 2 2 2 2 2 3 4 6 8 7 5 4 4 4 3 3 2 1 2 2 2 2 2 3 3 3 3 3 3 3 3 3 4 3 2 1 0 1 1 1 2 2 3
Wind_Direction
288 288 286 283 282 281 277 272 271 271 271 268 266 264 263 258 256 254 252 252 252 253 254 255 255 256 256 255 255 255 255 255 255 255 254 254 253 253 253 253 255 256 257 256 253 250 246 243 240 239 238 239 239 238 237 236 234 232 230 228 226 224 223 221 219 216 213 211 212 216 220 219 215 209 203 201 199 198 198 198 198 199 200 201 202 203
289 289 287 284 282 281 280 274 269 267 269 269 267 265 264 261 259 257 255 253 251 251 252 253 253 254 254 255 255 255 255 255 255 255 255 254 253 253 252 252 254 257 259 260 259 256 252 248 244 240 239 239 240 240 239 237 235 233 230 228 226 224 222 220 219 216 214 213 216 220 223 220 215 209 202 199 197 196 196 196 197 197 198 199 201 202
294 292 289 288 286 283 282 279 273 268 268 270 269 267 264 263 262 261 260 259 256 253 251 251 252 253 253 255 255 255 255 255 255 255 255 255 254 253 252 251 252 254 257 259 259 258 256 252 247 242 239 238 239 240 239 238 236 233 230 228 225 223 221 219 218 217 217 219 221 223 222 218 212 206 200 197 195 194 194 194 195 195 197 198 200 202
294 292 291 290 287 283 282 282 279 274 270 271 270 269 266 266 264 262 261 261 262 262 263 262 260 257 255 256 256 255 255 255 255 255 255 255 254 253 252 251 250 251 253 255 256 257 256 253 249 244 240 239 239 239 239 238 236 233 231 228 225 222 220 218 218 218 220 223 224 223 218 212 206 200 196 194 192 192 192 192 193 194 195 197 199 201
292 291 293 293 290 286 284 284 282 279 275 272 270 269 267 266 265 263 261 259 260 263 267 267 263 257 254 254 255 255 255 255 255 256 256 256 255 254 253 251 250 249 249 251 253 254 255 254 251 247 242 240 239 239 238 237 235 233 230 228 225 222 219 217 217 217 219 221 219 216 210 203 198 194 192 191 190 190 190 191 192 193 195 197 199 201
289 289 291 291 289 288 288 285 283 281 280 275 271 268 265 264 263 264 264 259 257 256 258 255 252 249 249 250 252 254 255 256 256 257 257 257 257 257 256 254 251 249 248 248 250 252 254 254 252 248 245 242 240 239 238 236 233 231 229 227 224 222 219 216 214 213 212 211 209 205 200 195 192 190 189 189 189 189 189 190 191 192 194 196 198 200
286 286 288 286 285 284 286 284 282 280 279 278 276 272 267 264 262 263 264 261 258 256 255 252 249 247 247 248 251 254 256 257 258 259 260 260 259 259 258 256 254 251 249 248 249 251 253 254 252 249 246 243 241 239 237 234 231 229 227 225 223 221 219 216 212 208 205 201 198 195 192 190 188 188 188 188 189 189 189 189 190 191 192 195 197 200
291 290 289 287 286 286 284 281 279 277 275 277 279 278 274 269 265 262 261 258 256 256 258 257 255 251 248 249 250 253 255 258 259 260 261 261 260 259 259 258 256 255 252 251 250 250 251 251 249 247 245 243 241 238 236 232 229 226 224 223 222 222 221 217 212 206 199 195 192 190 188 187 187 187 187 188 188 188 188 188 188 189 190 193 196 199
300 299 296 293 292 290 288 283 280 279 279 279 279 278 277 275 273 270 267 262 259 258 264 267 265 260 252 249 248 249 251 253 255 257 258 259 259 258 258 258 258 257 255 254 252 250 248 246 244 243 242 241 239 237 234 231 228 225 222 221 221 221 220 216 209 202 195 192 190 188 187 186 186 186 186 187 187 186 186 186 186 187 189 192 195 198
300 299 298 296 294 293 292 290 289 288 286 284 280 277 277 278 279 280 278 274 271 271 275 276 275 271 264 256 250 248 249 250 252 253 254 254 255 255 256 257 258 257 257 256 253 250 247 243 241 239 239 239 238 236 234 231 228 225 222 220 219 218 215 210 204 198 193 191 189 188 186 185 185 185 185 185 184 184 184 184 184 185 187 191 194 197
295 294 294 294 294 294 292 293 295 296 294 288 282 276 271 272 278 284 285 284 283 283 282 278 276 275 275 269 261 254 250 252 253 254 254 253 253 254 255 255 256 257 257 255 254 251 247 243 240 239 238 238 237 235 233 232 229 226 223 219 216 213 208 203 199 195 192 191 189 188 186 185 184 183 182 182 182 182 181 182 182 184 187 190 193 196
291 291 290 291 292 292 291 291 292 293 292 288 284 279 272 267 274 283 286 285 285 286 284 278 270 265 265 265 263 258 251 252 253 255 255 254 253 253 253 254 254 254 254 253 252 250 248 245 242 240 239 238 237 235 233 232 230 227 223 219 214 209 204 200 196 194 192 191 190 188 187 185 183 181 180 179 179 179 179 180 181 183 186 189 192 195
287 288 288 288 288 288 288 289 289 289 286 285 285 286 285 283 285 287 286 283 283 283 283 279 273 266 259 254 251 249 247 248 249 250 251 252 251 250 249 249 249 249 248 249 248 247 245 244 242 241 241 240 238 237 235 234 231 228 224 218 213 207 202 198 195 193 192 191 190 188 186 184 182 179 177 176 175 175 176 177 180 183 185 189 191 194
291 291 290 288 288 288 289 291 292 292 291 291 292 293 295 296 294 291 288 283 281 279 278 274 272 269 263 252 245 241 242 246 248 248 248 246 242 238 235 240 241 241 239 242 243 242 239 238 239 240 239 239 239 238 237 235 232 229 224 218 211 206 201 197 195 193 192 191 189 187 185 182 179 176 174 172 172 172 173 175 178 181 184 187 190 194
296 297 295 293 293 294 296 298 299 299 299 300 300 299 298 293 289 286 283 280 279 277 273 270 269 268 266 255 243 235 235 240 246 249 249 247 238 226 217 230 238 240 236 237 240 240 235 233 233 234 234 234 235 236 235 234 230 226 222 216 210 204 200 197 195 193 192 190 188 185 183 180 177 174 171 170 169 169 171 173 176 178 181 185 188 193
297 297 295 295 294 295 296 298 298 297 298 298 297 295 293 289 287 284 283 282 282 284 284 283 281 278 273 262 243 223 219 231 240 246 250 251 240 217 198 220 234 240 237 236 237 238 233 230 230 231 232 232 232 232 232 233 229 224 219 213 208 203 199 197 195 193 191 189 187 184 181 178 175 172 169 168 167 167 169 171 173 176 179 182 187 191
294 293 291 291 291 291 293 292 291 290 292 292 291 289 288 289 290 291 290 292 293 293 289 288 287 287 286 282 261 209 190 212 230 242 247 252 244 217 187 208 227 238 238 235 235 234 231 229 230 231 232 232 232 232 231 229 227 222 218 212 207 202 199 196 194 192 190 187 184 182 179 176 173 170 168 166 165 166 167 169 172 175 178 182 186 191
289 288 287 286 287 288 290 289 289 289 290 291 292 293 295 297 299 300 299 296 293 289 285 282 281 283 287 287 278 219 166 199 223 240 245 251 244 219 185 201 220 234 238 237 235 231 227 228 228 229 232 233 233 232 231 229 226 222 217 211 206 202 198 195 192 189 186 183 180 178 175 173 171 168 166 165 165 165 166 169 172 175 178 182 186 190
285 284 283 283 284 285 286 287 289 291 293 295 299 303 303 303 301 297 292 288 285 282 282 282 280 278 277 278 277 252 159 198 227 246 251 255 250 227 183 200 219 231 239 239 236 232 227 229 230 231 233 234 234 234 233 231 228 224 218 211 205 199 195 191 187 183 180 177 174 172 171 169 168 167 165 165 165 166 168 170 173 176 179 182 186 190
281 279 277 280 282 283 282 282 283 286 290 295 298 298 295 293 290 286 281 281 281 281 282 281 280 277 275 279 281 272 162 184 225 249 255 261 258 239 183 201 216 230 239 240 237 231 225 229 233 235 236 237 237 237 236 233 229 224 217 208 201 194 188 183 179 176 173 170 168 167 167 167 167 166 165 166 167 168 170 172 174 176 179 182 186 190
276 274 273 275 277 278 279 279 280 282 284 287 286 285 283 284 284 285 287 291 293 294 295 290 286 285 288 289 290 286 174 178 216 246 260 262 259 242 185 196 213 229 239 242 239 230 221 224 230 235 237 239 239 239 239 235 229 222 212 201 192 184 178 174 171 169 167 165 165 165 166 166 166 166 166 167 169 170 171 173 174 176 179 183 187 191
271 272 272 271 271 272 274 277 278 279 280 279 278 278 280 285 288 290 294 296 296 295 293 290 289 290 291 290 290 289 237 205 225 248 268 268 262 250 189 191 210 228 238 242 239 223 206 221 229 235 238 238 239 239 237 230 222 212 198 187 178 173 169 167 166 165 164 163 164 164 165 165 166 166 167 169 170 171 172 173 175 177 180 184 188 192
267 269 272 270 269 268 270 273 275 276 276 274 273 273 277 281 283 285 287 286 285 284 283 282 282 282 279 278 278 275 252 230 229 241 257 266 265 258 204 190 208 227 238 238 232 174 178 226 238 243 241 235 234 232 228 217 204 191 179 171 166 164 163 162 162 162 162 162 163 164 164 165 165 166 168 169 170 171 172 173 175 178 181 186 190 194
267 268 269 269 268 268 269 272 274 276 276 274 273 272 273 273 274 276 278 278 278 277 277 278 276 274 271 270 270 266 251 230 223 227 241 258 264 262 209 188 209 227 237 230 179 104 152 250 269 268 255 232 225 218 208 194 181 171 165 162 160 160 159 160 160 161 161 162 163 163 163 164 165 166 168 169 170 171 172 174 176 180 184 188 192 195
269 268 269 271 272 274 277 279 281 282 283 282 280 278 276 275 275 275 274 273 273 273 273 274 273 272 272 272 271 268 255 222 209 212 229 253 261 259 213 188 205 223 236 211 69 71 107 305 311 309 295 233 211 199 186 173 166 161 158 157 157 158 158 159 160 160 161 162 162 163 163 164 165 167 168 169 170 171 173 175 179 182 186 190 193 196
277 278 280 284 286 287 288 288 288 288 287 286 284 283 282 281 279 276 273 270 269 269 269 269 269 270 273 274 274 272 264 216 202 206 218 246 257 258 239 199 205 213 211 56 46 45 79 26 338 336 335 267 195 180 169 162 159 157 156 156 157 157 158 159 160 161 162 162 162 162 163 164 166 167 168 169 171 173 175 178 181 185 188 191 194 196
289 292 295 296 297 296 295 294 292 291 289 287 286 285 284 283 280 276 272 271 270 270 270 272 275 279 282 281 279 276 272 232 206 207 214 236 254 263 262 211 193 179 111 59 42 38 86 77 15 353 351 340 211 166 159 157 156 156 156 156 157 158 160 161 161 162 162 162 162 162 163 165 166 167 168 170 173 175 178 181 184 186 188 190 192 195
304 306 306 303 301 299 296 294 292 290 289 287 286 284 283 279 275 273 274 282 289 292 290 290 290 289 288 283 281 279 275 248 212 200 200 219 242 257 258 187 155 135 109 77 46 30 37 40 24 2 356 353 1 139 153 154 154 154 155 157 158 159 161 161 162 162 162 161 162 163 164 165 167 168 170 173 176 179 181 184 185 186 187 186 185 186
309 306 303 300 298 296 294 292 290 288 286 285 284 283 282 280 281 288 300 311 312 305 296 291 287 285 284 282 282 280 272 250 210 180 170 195 225 243 173 166 159 144 121 101 64 25 11 10 5 2 2 4 12 61 139 149 151 152 155 158 159 160 161 161 161 161 161 161 162 163 165 166 168 170 173 176 179 181 183 184 184 184 184 180 174 167
308 305 302 299 297 296 294 291 288 286 285 286 287 288 291 294 299 304 308 308 303 295 289 286 285 284 286 288 288 284 273 251 192 160 159 187 209 213 153 171 177 168 142 128 110 51 348 348 349 352 15 24 27 37 85 132 139 144 150 156 159 160 161 161 161 161 161 162 163 165 166 168 170 173 176 179 181 182 183 183 181 178 173 167 160 157
308 306 303 301 299 297 295 291 289 287 288 290 293 296 299 299 297 295 294 292 289 286 285 285 286 286 288 290 288 285 281 275 174 154 161 193 208 197 160 177 187 185 169 155 151 156 175 314 332 345 37 58 53 51 57 82 103 121 136 148 154 158 161 160 160 160 161 163 165 166 168 170 173 176 179 181 182 182 182 181 178 172 161 158 156 156
306 304 302 300 299 298 296 293 292 291 291 292 292 293 293 292 291 288 286 283 280 279 278 280 281 282 282 280 278 279 284 296 199 166 171 200 213 198 166 178 186 189 185 172 167 165 157 154 154 144 118 107 87 69 58 67 82 106 124 132 142 153 159 159 158 159 161 164 166 169 171 174 176 179 181 182 182 182 181 180 177 171 158 158 158 160
303 301 300 299 298 297 295 294 293 291 289 288 288 290 294 295 292 287 281 276 272 270 271 274 276 277 278 275 274 275 279 282 213 185 188 203 211 197 173 178 181 180 171 146 68 93 131 140 140 140 141 127 103 80 64 68 81 102 121 128 135 146 156 155 155 157 160 163 166 170 173 176 179 182 183 183 183 182 181 180 178 173 162 159 161 163
301 299 299 298 297 295 294 293 293 291 289 289 292 297 302 299 294 288 280 272 266 262 262 265 269 273 276 276 275 275 276 270 213 190 195 203 206 194 177 182 181 176 164 151 109 72 84 124 132 134 134 123 100 77 65 61 68 82 102 116 123 132 141 143 143 145 148 154 159 166 172 178 182 184 185 184 183 182 182 182 180 177 172 167 164 163
300 299 299 298 297 297 296 296 295 294 293 294 299 303 304 300 295 288 280 272 264 259 256 257 260 264 269 272 275 276 277 271 222 196 200 205 204 195 183 189 185 177 170 165 152 132 121 134 138 139 136 130 113 75 46 38 48 63 74 87 95 100 106 113 117 118 117 118 119 127 149 167 180 184 186 185 184 183 183 183 183 181 178 174 171 169
300 300 299 300 299 299 299 300 299 299 299 300 303 305 304 298 293 287 281 272 267 264 263 261 260 260 261 265 269 273 278 276 238 207 206 208 205 197 191 193 186 178 173 171 164 154 143 141 143 143 142 139 132 113 64 36 51 66 69 70 72 75 77 89 100 106 107 104 101 99 101 121 150 173 183 183 183 183 184 185 186 186 184 181 179 177
299 299 300 301 301 301 301 302 302 302 304 306 307 307 304 298 293 287 280 274 270 270 272 272 272 271 272 270 270 273 278 275 247 218 211 209 206 201 194 191 185 179 175 171 165 158 147 142 143 145 146 144 142 141 144 136 100 82 73 69 68 68 65 73 90 103 108 109 109 107 107 110 119 139 163 177 181 182 184 186 188 189 189 187 184 182
301 301 303 303 304 304 303 303 304 304 306 308 308 306 303 297 290 283 277 275 275 277 281 282 284 288 293 296 296 295 294 288 261 234 221 216 210 202 189 180 179 178 175 166 160 156 151 148 148 149 149 140 136 140 146 144 131 113 93 78 70 64 56 62 83 101 111 113 114 112 107 105 104 108 119 145 154 161 169 181 188 192 193 191 189 187
304 303 304 305 306 306 305 304 304 305 306 305 304 302 299 293 286 280 275 276 279 282 287 293 297 302 308 313 320 325 329 328 320 303 279 259 219 179 163 157 156 156 151 148 150 152 154 154 155 154 150 139 131 131 137 138 133 126 116 95 73 57 45 52 74 98 116 120 119 114 104 99 97 98 99 100 100 101 105 103 111 142 171 179 186 186
305 304 304 305 306 305 303 302 302 303 303 302 300 298 295 290 286 282 279 279 280 283 288 294 300 305 311 322 334 343 349 351 354 356 358 7 21 52 103 121 126 125 121 119 126 137 147 149 148 146 145 142 141 142 141 137 136 136 133 121 101 71 46 48 57 76 107 119 121 119 112 102 99 100 104 106 111 117 122 117 107 96 93 92 111 150
306 305 305 305 305 303 300 299 299 299 299 298 298 297 293 291 291 291 289 286 285 287 293 299 302 305 309 324 341 353 359 2 6 10 12 16 27 44 71 90 104 110 112 104 96 97 112 121 126 129 132 136 137 137 138 141 145 147 143 135 129 121 98 68 57 59 85 108 118 123 123 114 107 104 106 106 107 112 120 121 118 110 95 96 111 125
306 305 305 306 305 304 301 299 298 297 297 296 295 293 292 293 294 295 295 295 295 297 305 313 315 315 316 328 345 359 6 8 13 17 21 23 30 41 60 74 88 100 107 100 89 81 84 104 116 126 134 135 134 131 130 137 142 144 140 128 119 110 90 62 38 33 70 100 111 118 124 119 114 111 109 104 95 85 92 110 121 125 123 113 116 129
306 305 304 303 302 300 299 299 299 299 300 298 294 291 290 291 293 293 294 295 299 305 313 319 321 319 320 331 345 359 7 12 17 22 27 29 32 37 47 55 67 85 101 102 96 87 78 85 94 107 124 130 130 130 132 134 132 128 125 130 131 128 119 88 350 9 54 85 95 102 110 113 111 106 100 94 84 74 76 101 122 134 140 134 130 129
304 303 303 302 302 301 301 301 301 301 301 299 296 294 292 292 292 292 293 295 299 306 313 314 315 315 319 331 343 355 3 11 19 26 31 34 37 39 42 42 43 48 65 92 104 105 97 85 79 77 83 108 118 124 130 131 127 123 122 130 131 132 140 150 147 121 81 78 77 81 92 102 101 94 81 74 67 64 74 86 95 110 125 124 128 133
303 303 304 304 304 305 304 304 303 303 303 300 297 295 293 294 295 295 295 295 299 303 304 304 306 311 317 331 342 352 1 11 19 25 30 34 38 41 43 42 40 38 41 55 80 102 110 104 96 83 70 87 102 115 126 129 128 123 116 106 95 90 95 111 122 126 120 107 92 84 91 99 98 94 85 75 67 67 83 109 120 123 113 110 124 140
304 305 306 306 306 305 303 304 304 305 302 299 296 293 292 293 293 292 294 296 298 299 303 311 318 322 322 331 340 352 6 15 21 24 27 30 33 36 40 43 45 46 46 45 49 61 82 100 108 107 94 85 84 91 111 127 129 126 118 107 100 94 88 89 102 121 129 124 119 112 106 94 94 98 105 102 92 78 80 129 148 154 150 141 143 152
306 306 307 306 305 303 302 304 305 305 303 300 296 293 292 290 287 287 292 297 299 301 314 332 344 347 341 342 350 6 23 30 30 31 31 33 34 36 39 43 46 50 55 57 57 57 59 66 80 95 103 100 93 86 83 104 118 124 125 118 112 105 97 95 105 119 123 124 128 131 121 95 93 100 112 109 101 85 61 132 168 167 164 159 159 161
307 307 306 305 304 304 304 306 306 306 304 301 297 293 293 293 296 297 297 302 305 311 330 351 3 8 1 3 17 34 48 48 45 43 42 39 39 39 40 44 49 53 57 61 63 64 60 54 52 58 83 103 112 114 110 98 103 112 121 118 110 105 102 107 116 118 111 119 128 134 126 114 115 120 120 111 105 100 93 201 211 197 181 170 168 169
306 305 304 304 304 305 306 308 308 307 304 301 297 293 293 301 307 312 309 307 307 315 330 352 9 25 29 32 42 52 60 60 57 52 49 46 44 44 44 49 55 59 59 58 57 55 54 51 48 49 59 85 106 117 119 109 100 96 94 94 98 104 109 116 120 118 111 116 121 122 113 113 121 126 123 120 121 124 126 215 239 226 204 183 177 176
306 304 304 304 305 305 307 309 309 308 304 299 295 293 296 301 307 310 305 305 307 315 328 351 13 37 53 55 58 61 65 64 62 58 52 48 45 45 44 45 51 57 56 45 35 31 33 39 41 44 52 68 88 107 115 115 106 88 70 69 82 99 112 119 124 125 122 121 118 111 97 94 97 105 110 118 123 125 122 188 244 236 217 192 182 181
307 306 306 306 306 306 307 308 308 306 302 296 293 292 298 300 300 300 301 305 312 320 336 352 16 49 67 67 65 64 61 62 61 59 53 47 43 41 34 27 28 36 44 38 27 22 27 35 34 37 42 53 65 86 121 131 122 102 77 59 59 84 106 116 121 122 122 120 115 109 102 98 99 103 111 118 120 121 124 170 249 251 234 190 179 184